KUIPER-00209

导读

KUIPER-00209是亚马逊柯伊伯(Kuiper)低轨卫星互联网项目中的一颗卫星,于2026年2月12日由法国完成发射。该项目计划发射数千颗低轨卫星,旨在为全球提供高速低延迟的互联网接入服务,尤其覆盖偏远地区。KUIPER-00209的发射是项目大规模部署阶段的重要组成部分,助力构建全球卫星互联网络,推动太空通信与云服务一体化基础设施建设。

Basic Information
目录编号:
67776
目录名称:
KUIPER-00209
国际标识:
2026-030N
轨道中心:
EARTH
卫星名称:
KUIPER-00209
卫星全名:
KUIPER-00209
卫星状态:
在轨 (已飞行124 天)
发射日期:
2026-02-12 UTC
国别 :
美国 (US)
星等 :
--
Orbit Information
数据来源 国际轨道数据 AOE轨道数据
星历时间 2026-06-16T13:12:31+0800
9小时前
查看轨道信息
2026-06-16T02:00:00+0800
20小时前
查看轨道信息
半长轴 7007.661km 7007.663km
偏心率 0.0000473 0.0001756
轨道倾角 51.901° 51.903°
近地点辐角 42.732° 10.522°
升交点赤经 132.515° 134.582°
平近点角 317.368° 19.846°
近地点 629.192km 628.295km
远地点 629.856km 630.757km
周期 97.301分钟 97.301分钟
每日圈数 14.79937 14.799361
Detailed Information
使用方式:
暂无
2D Orbit Map
3D Orbit Map
Orbit Altitude Analysis Chart
Orbit Inclination Analysis Chart
Orbit Comprehensive Analysis Chart
View Comprehensive Chart